Regional Weather Roundup
Issued by NWS

Home | Current Version | Previous Version | Text Only | Print | Product List | Glossary On
Versions: 1 2 3 4 5 6 7 8 9 10 11 12 13 14 15 16 17 18 19 20 21 22 23 24 25 26 27 28 29 30 31 32 33 34 35 36 37 38 39 40 41 42 43 44 45 46 47 48 49 50
000
ASUS43 KDMX 312307
RWRIA

WEATHER ROUNDUP FOR IOWA
NATIONAL WEATHER SERVICE DES MOINES IA
500 PM CST SAT JAN 31 2015

NOTE: "FAIR" INDICATES FEW OR NO CLOUDS BELOW 12,000 FEET WITH NO
SIGNIFICANT WEATHER AND/OR OBSTRUCTIONS TO VISIBILITY.

* - THESE STATIONS ARE NOT NWS STATIONS...THUS NOT UNDER NWS
QUALITY CONTROL.  THEY ALSO DO NOT REPORT WEATHER SUCH
AS PRECIPITATION OR FOG.

IAZ001>003-012>014-020>022-031>034-043>046-010000-
   NORTHWEST IOWA

CITY           SKY/WX    TMP DP  RH WIND       PRES   REMARKS
CARROLL *      LGT SNOW  32  32 100 E8        30.02F VSB 3/4 WCI  25
CHEROKEE *     LGT SNOW  30  30 100 NE8       30.03F WCI  23
DENISON *      LGT SNOW  32  32 100 E5        29.98F VSB 3/4 WCI  27
LE MARS *      LGT SNOW  30  30 100 NE14      30.02S WCI  20
ORANGE CITY *  LGT SNOW  28  27  93 E10G17    30.01F VSB 3/4 WCI  19
SHELDON *      LGT SNOW  27  28 100 E18G25    30.02F WCI  13
SIOUX CITY     LGT SNOW  33  32  96 E7        30.00F VSB 3/4 WCI  27
SPENCER        LGT SNOW  29  26  89 NE13      30.05F VSB 1   WCI  19
STORM LAKE *   LGT SNOW  28  28 100 NE14      30.03S VSB 3/4 WCI  17
$$

IAZ055>058-069>071-079>083-090>094-010000-
   SOUTHWEST IOWA

CITY           SKY/WX    TMP DP  RH WIND       PRES   REMARKS
ATLANTIC *     LGT SNOW  34  34 100 CALM      30.00F
AUDUBON *      LGT SNOW  34  30  86 CALM      30.01F VSB 1
CLARINDA *     MOCLDY    34  34 100 SE7       30.02F FOG     WCI  28
COUNCIL BLFS * LGT SNOW  32  32 100 SE9       29.96F VSB 3/4 WCI  24
CRESTON *      LGT SNOW  32  32 100 SE10      30.01F WCI  24
HARLAN  *      LGT SNOW  34  34 100 SE6       30.03F WCI  29
LAMONI         SNOW      32  32 100 SE9       30.04F VSB 1/2 WCI  24
RED OAK *      LGT SNOW  34  34 100 S7        29.99F WCI  28
SHENANDOAH *   CLOUDY    34  34 100 SE12      29.99F FOG     WCI  25
$$

IAZ047>049-059>061-072>074-084-010000-
   CENTRAL IOWA

CITY           SKY/WX    TMP DP  RH WIND       PRES   REMARKS
AMES           LGT SNOW  33  31  92 E3        30.06F VSB 1
ANKENY *       CLOUDY    37  36  93 S5        30.06F WCI  34
CHARITON *     LGT RAIN  36  36 100 S9        30.06F WCI  29
DES MOINES     FLURRIES  35  33  92 S7        30.06F WCI  29
GRINNELL*      RAIN      36  36 100 S7        30.08F WCI  30
KNOXVILLE *    CLOUDY    36  34  93 SE5       30.06F FOG     WCI  32
MARSHALLTOWN   LGT RAIN  35  34  96 S3        30.07F FOG
PELLA *        LGT RAIN  36  36 100 S5        30.09F WCI  32
PERRY *        LGT RAIN  34  34 100 E5        30.04F WCI  30
$$

IAZ004>006-015-016-023>025-035-036-010000-
   NORTH CENTRAL IOWA

CITY           SKY/WX    TMP DP  RH WIND       PRES   REMARKS
ALGONA *       LGT SNOW  30  30 100 E12       30.07S VSB 3/4 WCI  21
CLARION *      LGT SNOW  32  32 100 E10       30.06F VSB 3/4 WCI  24
ESTHERVILLE    LGT SNOW  28  27  96 NE12      30.06F VSB 1   WCI  18
FORT DODGE *   CLOUDY    32  30  93 CALM      30.05F VSB 1
MASON CITY     MIX PCPN  31  29  92 E10       30.09F FOG     WCI  22
FOREST CITY *  LGT SNOW  32  30  93 E8        30.08S WCI  25
IOWA FALLS *   MIX PCPN  34  32  93 CALM      30.07F
$$

IAZ007>011-017>019-026>030-037>042-050>054-066-010000-
   NORTHEAST IOWA

CITY           SKY/WX    TMP DP  RH WIND       PRES   REMARKS
CEDAR RAPIDS   LGT RAIN  36  36 100 S3        30.10F FOG
CHARLES CITY * CLOUDY    32  30  93 E8        30.10S WCI  25
CLINTON *      CLOUDY    34  32  93 SW7       30.18R WCI  28
DECORAH *      CLOUDY    30  25  80 E7        30.11F WCI  23
DUBUQUE        CLOUDY    33  28  81 NE8       30.12S WCI  26
MONTICELLO *   LGT RAIN  36  36 100 S5        30.12S VSB 1   WCI  32
OELWEIN *      MIX PCPN  34  32  93 E6        30.10F WCI  29
WATERLOO       LGT RAIN  34  34 100 E3        30.09F FOG
$$

IAZ064-065-067-068-078-010000-
   EAST CENTRAL IOWA

CITY           SKY/WX    TMP DP  RH WIND       PRES   REMARKS
DAVENPORT      LGT RAIN  34  32  92 S6        30.15F FOG     WCI  29
IOWA CITY      LGT RAIN  36  36 100 S5        30.14F FOG     WCI  32
MT. PLEASANT * LGT RAIN  36  36 100 SE7       30.13F WCI  30
MUSCATINE *    CLOUDY    36  34  93 SE5       30.15F FOG     WCI  32
QUAD CITIES    LGT RAIN  35  33  92 S5        30.15F FOG     WCI  31
$$

IAZ062-063-075>077-085>089-095>099-010000-
   SOUTHEAST IOWA

CITY           SKY/WX    TMP DP  RH WIND       PRES   REMARKS
BURLINGTON     MIX PCPN  34  34 100 S3        30.14F FOG
FAIRFIELD *    MIX PCPN  36  36 100 S3        30.11F
FORT MADISON * LGT RAIN  36  34  93 S6        30.15F WCI  31
KEOKUK *       LGT RAIN  36  36 100 SE5       30.14F WCI  32
OSKALOOSA *    RAIN      36  34  93 SE3       30.09F
CENTERVILLE *  LGT RAIN  37  37 100 S6        30.09F WCI  33
OTTUMWA        LGT RAIN  36  36 100 SE5       30.09F WCI  32
WASHINGTON *   CLOUDY    36  36 100 S6        30.12F FOG     WCI  31
$$

ABBREVIATIONS USED IN REMARKS
   TC - TEMPERATURES IN CELSIUS
  WCI - WIND CHILL INDEX
   HX - HEAT INDEX
  VSB - VISIBILITY
$$




USA.gov is the U.S. government's official web portal to all federal, state and local government web resources and services.